Location: Lussas
(44.6119°N, 4.4726°E)
Time: 16:22:57
(UTC+00:00)

Cosmos 1689 Rocket - Pass Details

Date: 26 November 2020
Orbit: 355 x 369 km, 97.5° (Epoch: 28 January)

Event Time Altitude Azimuth Distance (km) Brightness Sun altitude
Rises 04:59:42 0° 164° (SSE) 2,166 6.2 -19.8°
Reaches altitude 10° 05:01:37 10° 163° (SSE) 1,328 5.1 -19.4°
Maximum altitude 05:04:26 81° 76° (ENE) 368 1.9 -18.9°
Enters shadow 05:04:33 77° 33° (NNE) 372 1.9 -18.9°
